Torna al catalogo

COSMOS 1275 DEB

AttivoPO
NORAD 12743·DEBRIS·🇷🇺 Russia

Lanciato Jun 4, 1981 da Plesetsk Cosmodrome

Loading…

Prossimi Passaggi (prossime 24 ore)

TLE

AggiornatoSource: Space-Track

Epoca: Sep 14, 2026, 10:46 UTC

1 12743U 81053CL  26257.44921404  .00000420  00000-0  38217-3 0  9994
2 12743  82.9252 145.2496 0061878 287.5259 248.4653 13.80492051263585

Traccia COSMOS 1275 DEB in tempo reale con AllMySat

Download on the App Store